CZ-6A DEB

Satellite information

Favourite Embed

Satellite Type and Status

DEBRISIN ORBIT

Key statistics

Satellite CZ-6A DEB at a glance.

Uptime

911

Days in orbit

Revolutions

≈ 14.0

Per day

Orbit

SSO

Sun Synchronous Orbit

Inclination

98.8

Latest

Satellite identification and parameters

Extended collection of information and parameters for CZ-6A DEB.

Object identification

Identified? True

Debris? True

Object name: CZ-6A DEB

International designator: 2022-151AAZ

Object number (NORAD): 55901

Object ID (CCSDS): 55901

Country: PEOPLES REPUBLIC OF CHINA (PRC)

Current information (Y/N): Y

RCS size: SMALL

Orbital parameters

Period: 102.63 minutes

Inclination: 98.8347 deg

SMA: 7261.23 km

Apoapsis: 942.804 km

Periapsis: 823.386 km

RAAN: 120.5266 deg

Eccentricy: 0.008223

Argument of periapsis: 77.9563 deg

Mean anomaly: 283.0805 deg

Mean motion: 14.03096393 rev/day

Mean motion (dot): 0.00000147 rev/day2

B* drag term: 0.00011824 1/REarth

Two-line elements (TLE)

Creation date: May 10, 2025, 2:32 a.m.

Reference frame: TEME

Reference center: EARTH

Epoch: May 9, 2025, 10:20 a.m. UTC

TLE line 0: 0 CZ-6A DEB

TLE line 1: 1 55901U 22151AAZ 25129.43078506 .00000147 00000-0 11824-3 0 9994

TLE line 2: 2 55901 98.8347 120.5266 0082230 77.9563 283.0805 14.03096393121058

Live tracking on map

Real-time ground track for satellite CZ-6A DEB.

In-orbit conjunctions

A list of the most updated potential collisions computed for object CZ-6A DEB.

Target Orbit TCA Probability of collision Miss distance Type
CZ-4B R/B SSO 2024-12-22 10:54:00 0.0001982531 152.0 (m) ROCKET BODY
DELTA 2 R/B LEO 2024-11-22 20:58:25 0.0001079913 209.0 (m) ROCKET BODY
COSMOS 886 DEB MEO 2024-07-03 10:34:54 0.0002353794 87.0 (m) DEBRIS

Associated space launch

Chinese satellite reported for atmospheric/ocean/environmental/spatial parameter research purposes, details TBD.

CZ-6A DEB was lifted into orbit during the mission ‘Long March 6A | Yunhai 3’, on board a Long March 6A space rocket.

The launch took place on Nov. 11, 2022, 10:52 p.m. from Launch Complex 9A.

For more information about the launch, click the button.

Launch to space Long March 6A | Yunhai 3
Long March 6A | Yunhai 3

Agency: N/A

Status: Launch Successful

Launch date: Nov. 11, 2022, 10:52 p.m. UTC

Rocket: Long March 6A

Launch pad: Launch Complex 9A

Location: Taiyuan Satellite Launch Center, People's Republic of China

...

Latest news about this satellite

There are no fresh news available about this satellite. Check back as we update our databases every day.


Newsletter sign-up

Weekly statistics, charts and insights to help you stay on top of the space industry.